[[{"header":{"parameterUnit":"m.s-1","parameterCategory":1,"la1":30.2991,"la2":30.254,"lo1":-89.0895,"lo2":-89.0444,"dy":0.0017,"dx":0.0017,"nx":28,"ny":28,"refTime":"2025-04-04T03:00:00:Z","depth":0,"parameterNumber":2,"parameterNumberName":"U-component_of_WINDS"},"data":[0,0,0,0,0,0,0,0,0,0,0,0,0,0,0,0,0,0,0,0,0,0,0,0,0,0,0,0,0,0,0,0,0,0,0,0,0,0,0,0,0,0,0,0,0,0,0,0,0,0,0,0,0,0,0,0,0,0,-3.8692,-3.8693,0,-3.8802,-3.8803,-3.8804,-3.8819,-3.8818,-3.8817,-3.8816,-3.8929,-3.8933,-3.8937,0,0,0,0,0,0,0,0,0,0,0,0,0,-3.8496,-3.8499,-3.8692,-3.8693,-3.8695,-3.8802,-3.8803,-3.8805,-3.8819,-3.8818,-3.8817,-3.8816,-3.8928,-3.8933,-3.8938,0,0,0,0,0,0,0,0,0,0,0,0,0,-3.8591,-3.8501,-3.8692,-3.8715,-3.8718,-3.8801,-3.8803,-3.8805,-3.882,-3.8818,-3.8817,-3.8815,-3.8927,-3.8932,-3.8938,-3.9006,0,0,-3.8957,-3.8959,0,0,0,0,0,0,0,0,-3.8585,-3.8598,-3.871,-3.8713,-3.8717,-3.8795,-3.8776,-3.8873,-3.882,-3.8781,-3.8816,-3.8814,-3.8886,-3.8895,-3.8919,-3.9012,-3.9016,-3.8957,-3.8961,-3.8963,-3.8965,0,0,0,0,0,0,0,-3.8579,-3.8593,-3.8735,-3.8712,-3.8716,-3.872,-3.8732,-3.8794,-3.8841,-3.8784,-3.8786,-3.8798,-3.8888,-3.8914,-3.8922,-3.9018,-3.8957,-3.8962,-3.8966,-3.8968,-3.9172,-3.9173,0,0,0,0,0,0,-3.8568,-3.8588,-3.8732,-3.8739,-3.8646,-3.8725,-3.8738,-3.8772,-3.884,-3.8849,-3.88,-3.8799,-3.8904,-3.8915,-3.8926,-3.901,-3.8963,-3.8969,-3.8972,-3.917,-3.9172,-3.9174,0,0,0,0,0,0,-3.8564,-3.8581,-3.8727,-3.8664,-3.8683,-3.873,-3.8768,-3.8775,-3.88,-3.8852,-3.886,-3.8817,-3.8903,-3.8918,-3.8986,-3.9014,-3.8972,-3.8977,-3.9168,-3.917,-3.9173,-3.9177,0,0,0,0,0,0,-3.8558,-3.8579,-3.8605,-3.8664,-3.8686,-3.8785,-3.8769,-3.8778,-3.8811,-3.881,-3.8871,-3.8879,-3.8903,-3.8977,-3.8992,-3.9021,-3.8982,-3.9165,-3.9169,-3.9172,-3.9175,-3.918,-3.9184,0,0,0,0,0,-3.8551,-3.8602,-3.8606,-3.8623,-3.8719,-3.8787,-3.8799,-3.8826,-3.8813,-3.8839,-3.8873,-3.8877,-3.9009,-3.8984,-3.9001,-3.9032,-3.9164,-3.9168,-3.9172,-3.9173,-3.9179,-3.9184,0,0,0,0,0,0,-3.8545,-3.861,-3.8615,-3.8687,-3.8731,-3.8789,-3.8823,-3.8831,-3.888,-3.8878,-3.8909,-3.8922,-3.8989,-3.9018,-3.8989,-3.9102,-3.9085,-3.9093,-3.908,-3.9086,-3.9091,-3.9082,-3.8987,0,0,0,0,0,-3.8552,-3.8601,-3.8656,-3.8714,-3.8736,-3.8776,-3.8806,-3.8823,-3.887,-3.8888,-3.8926,-3.8972,-3.9024,-3.9057,-3.9107,-3.918,-3.9193,-3.921,-3.9215,-3.9218,-3.9224,-3.9264,-3.9272,-3.9187,-3.9187,-3.9187,0,0,-3.8567,-3.8609,-3.8638,-3.8714,-3.875,-3.88,-3.8791,-3.8845,-3.8882,-3.8897,-3.8963,-3.8993,-3.9046,-3.9116,-3.9149,-3.9142,-3.925,-3.9223,-3.9226,-3.923,-3.9269,-3.9277,-3.9284,-3.919,-3.919,-3.9189,0,0,-3.862,-3.8657,-3.8709,-3.8745,-3.88,-3.8826,-3.8839,-3.8896,-3.8916,-3.8983,-3.8995,-3.904,-3.9129,-3.9166,-3.9196,-3.9264,-3.927,-3.928,-3.9303,-3.9342,-3.9348,-3.9354,-3.9377,-3.9385,-3.9286,-3.9286,-3.9286,0,-3.8632,-3.8707,-3.8735,-3.8788,-3.882,-3.8836,-3.8889,-3.8923,-3.8991,-3.9014,-3.9005,-3.9116,-3.9153,-3.9232,-3.9249,-3.9274,-3.9289,-3.9272,-3.9345,-3.9351,-3.9357,-3.938,-3.9389,-3.9286,-3.9286,-3.9286,-3.9286,0,-3.8719,-3.8771,-3.8807,-3.8872,-3.8909,-3.8962,-3.8997,-3.9032,-3.9045,-3.9073,-3.9141,-3.9186,-3.9246,-3.9266,-3.928,-3.9348,-3.9341,-3.9339,-3.9322,-3.9366,-3.9387,-3.9396,-3.9287,-3.9287,-3.9287,-3.9287,0,0,-3.877,-3.885,-3.8862,-3.8892,-3.8953,-3.8994,-3.9048,-3.9106,-3.9134,-3.9182,-3.9227,-3.9302,-3.93,-3.9334,-3.9353,-3.9387,-3.9437,-3.938,-3.9382,-3.9388,-3.9513,-3.9513,-3.9523,-3.9442,-3.9443,-3.9445,-3.9508,0,-3.8829,-3.8924,-3.895,-3.9031,-3.9079,-3.9095,-3.9142,-3.9185,-3.9212,-3.9258,-3.9288,-3.934,-3.9334,-3.9355,-3.939,-3.9423,-3.9462,-3.9419,-3.9484,-3.9486,-3.9468,-3.9534,-3.9535,-3.9592,-3.9517,-3.9518,-3.9519,0,-3.891,-3.8958,-3.9043,-3.9098,-3.9119,-3.9161,-3.9216,-3.9259,-3.9309,-3.9326,-3.9365,-3.9381,-3.9437,-3.9419,-3.9498,-3.9468,-3.9496,-3.9517,-3.952,-3.9526,-3.9504,-3.954,-3.9611,-3.9619,-3.9533,-3.9532,-3.9531,0,-3.8937,-3.9023,-3.9085,-3.911,-3.9176,-3.9205,-3.9234,-3.9282,-3.9315,-3.9363,-3.9385,-3.944,-3.947,-3.9512,-3.9542,-3.9526,-3.9618,-3.9602,-3.9634,-3.9633,-3.9651,-3.9649,-3.9725,-3.9672,-3.9671,-3.9671,-3.9671,0,-3.8999,-3.905,-3.9098,-3.9136,-3.9194,-3.9224,-3.9281,-3.9311,-3.9353,-3.9397,-3.9415,-3.9456,-3.9494,-3.9541,-3.9565,-3.9626,-3.964,-3.9655,-3.9661,-3.9653,-3.9651,-3.9671,-3.9667,-3.9674,-3.9673,-3.9673,-3.9672,0,-3.9039,-3.9073,-3.9141,-3.9198,-3.9214,-3.9254,-3.9303,-3.934,-3.9369,-3.9424,-3.9439,-3.9484,-3.9539,-3.9574,-3.9645,-3.9661,-3.9728,-3.9733,-3.9711,-3.9713,-3.9742,-3.9738,-3.9833,-3.9846,-3.9784,-3.9785,-3.9785,0,-3.9076,-3.9115,-3.9176,-3.9207,-3.9236,-3.9285,-3.9319,-3.9351,-3.9385,-3.9445,-3.9475,-3.9532,-3.9578,-3.9667,-3.9705,-3.976,-3.9765,-3.9795,-3.9773,-3.9764,-3.9764,-3.9761,-3.9765,-3.9798,-3.9798,-3.9799,-3.9799,0,-3.9137,-3.9152,-3.9199,-3.9253,-3.9292,-3.9336,-3.938,-3.9404,-3.9444,-3.9482,-3.9538,-3.9575,-3.9647,-3.9702,-3.976,-3.9791,-3.9801,-3.9806,-3.9815,-3.9807,-3.9792,-3.9799,-3.9719,-3.9803,-3.9802,-3.9802,-3.9802,-3.9802,-3.9176,-3.9211,-3.926,-3.9312,-3.9348,-3.9389,-3.9427,-3.946,-3.9507,-3.9568,-3.9584,-3.9643,-3.9692,-3.977,-3.9802,-3.9849,-3.9845,-3.986,-3.9863,-3.9866,-3.9866,-3.9786,-3.986,-3.986,-3.986,-3.986,-3.986,0,-3.9237,-3.9269,-3.9317,-3.9377,-3.9418,-3.9425,-3.9474,-3.9508,-3.9559,-3.9604,-3.9649,-3.9714,-3.9769,-3.9812,-3.9868,-3.9897,-3.9903,-3.9911,-3.9908,-3.9915,-3.9867,-3.9852,-3.9905,-3.9905,-3.9905,-3.9905,-3.9905,-3.9905,-3.9274,-3.9334,-3.9355,-3.9433,-3.9465,-3.9522,-3.955,-3.9587,-3.9623,-3.9694,-3.9739,-3.9767,-3.9811,-3.987,-3.992,-3.9932,-3.9951,-3.9957,-3.9969,-3.9923,-3.9918,-3.9914,-3.99,-3.9961,-3.9962,-4.0014,-4.0014,-4.0014]},{"header":{"parameterUnit":"m.s-1","parameterCategory":1,"la1":30.2991,"la2":30.254,"lo1":-89.0895,"lo2":-89.0444,"dy":0.0017,"dx":0.0017,"nx":28,"ny":28,"refTime":"2025-04-04T03:00:00:Z","depth":0,"parameterNumber":3,"parameterNumberName":"V-component_of_WINDS"},"data":[0,0,0,0,0,0,0,0,0,0,0,0,0,0,0,0,0,0,0,0,0,0,0,0,0,0,0,0,0,0,0,0,0,0,0,0,0,0,0,0,0,0,0,0,0,0,0,0,0,0,0,0,0,0,0,0,0,0,5.1073,5.1075,0,5.1196,5.1197,5.1199,5.1178,5.1176,5.1174,5.1172,5.1298,5.1303,5.1308,0,0,0,0,0,0,0,0,0,0,0,0,0,5.0823,5.0828,5.1073,5.1075,5.1076,5.1196,5.1197,5.1199,5.1179,5.1176,5.1173,5.1171,5.1296,5.1302,5.1309,0,0,0,0,0,0,0,0,0,0,0,0,0,5.0937,5.0829,5.1073,5.108,5.1082,5.1195,5.1197,5.12,5.1179,5.1176,5.1173,5.117,5.1294,5.1302,5.131,5.1423,0,0,5.1334,5.1338,0,0,0,0,0,0,0,0,5.0931,5.0947,5.1078,5.108,5.1082,5.1169,5.1155,5.1275,5.118,5.1142,5.1172,5.1168,5.1257,5.1268,5.1298,5.1429,5.1434,5.1335,5.134,5.1343,5.1346,0,0,0,0,0,0,0,5.0923,5.0941,5.1122,5.108,5.1083,5.1078,5.1091,5.1178,5.1216,5.1145,5.1144,5.1159,5.1258,5.1291,5.1301,5.1436,5.1335,5.1342,5.1347,5.135,5.167,5.1673,0,0,0,0,0,0,5.0913,5.0935,5.1118,5.1125,5.0997,5.1085,5.11,5.1144,5.1215,5.1223,5.1162,5.1158,5.1279,5.1292,5.1305,5.1445,5.1343,5.1351,5.1355,5.1666,5.167,5.1674,0,0,0,0,0,0,5.0908,5.0929,5.1113,5.103,5.1053,5.1093,5.1143,5.1148,5.1181,5.1228,5.1234,5.1188,5.1277,5.1294,5.1395,5.1449,5.1354,5.1362,5.1662,5.1667,5.1672,5.1724,0,0,0,0,0,0,5.09,5.0928,5.097,5.1031,5.1057,5.12,5.1147,5.1153,5.1195,5.119,5.1254,5.1261,5.1275,5.1383,5.1403,5.1459,5.1368,5.1657,5.1664,5.1671,5.1718,5.1731,5.1742,0,0,0,0,0,5.0892,5.0979,5.0973,5.0995,5.1112,5.1203,5.1218,5.1232,5.1199,5.1243,5.1274,5.1259,5.144,5.1393,5.1416,5.1475,5.1653,5.1662,5.167,5.1712,5.1728,5.1742,0,0,0,0,0,0,5.0924,5.0987,5.0981,5.1091,5.1142,5.1199,5.1255,5.1248,5.1309,5.1303,5.1318,5.1333,5.1436,5.1465,5.1412,5.159,5.1542,5.1555,5.1567,5.1582,5.1594,5.1585,5.1374,0,0,0,0,0,5.0944,5.1012,5.1064,5.1156,5.1182,5.1214,5.1254,5.1261,5.1314,5.1336,5.1374,5.1426,5.1495,5.154,5.1606,5.1722,5.1737,5.1773,5.1785,5.1795,5.1807,5.1873,5.1891,5.1702,5.1701,5.1701,0,0,5.0985,5.1029,5.1071,5.1164,5.1204,5.1275,5.1232,5.1309,5.1362,5.1347,5.1445,5.1475,5.1535,5.1645,5.1695,5.1672,5.1862,5.1806,5.1813,5.1819,5.1883,5.1901,5.1917,5.1707,5.1706,5.1705,0,0,5.1098,5.1137,5.1219,5.1261,5.1323,5.1344,5.1364,5.1423,5.1443,5.1541,5.1533,5.1597,5.1714,5.1758,5.1796,5.1928,5.1918,5.1949,5.2012,5.2077,5.2092,5.2105,5.2154,5.2172,5.196,5.196,5.196,0,5.1143,5.1249,5.1263,5.1341,5.1383,5.1374,5.1458,5.1498,5.1578,5.1608,5.1581,5.1731,5.177,5.1891,5.1924,5.1954,5.1978,5.1942,5.2088,5.2102,5.2115,5.2162,5.218,5.1964,5.1963,5.1963,5.1963,0,5.1302,5.1376,5.1435,5.1514,5.1563,5.1643,5.167,5.1718,5.1721,5.1746,5.1848,5.1895,5.1971,5.2,5.2003,5.2123,5.2107,5.2084,5.2037,5.2136,5.2181,5.2199,5.1969,5.1967,5.1966,5.1966,0,0,5.1438,5.1524,5.1546,5.1583,5.1651,5.1709,5.1791,5.1866,5.1908,5.1964,5.2034,5.2135,5.2115,5.2158,5.2166,5.2222,5.2327,5.2193,5.2195,5.2218,5.2465,5.2482,5.2503,5.2321,5.2324,5.2327,5.246,0,5.1559,5.1703,5.1718,5.1847,5.1917,5.191,5.1982,5.2032,5.2058,5.2121,5.2149,5.2222,5.2189,5.2215,5.2271,5.2303,5.2377,5.2293,5.2388,5.2391,5.2374,5.2526,5.2545,5.2668,5.2478,5.2481,5.2483,0,5.1719,5.1781,5.1917,5.1979,5.2009,5.2072,5.2144,5.2204,5.2262,5.2277,5.2326,5.2328,5.2413,5.2362,5.2482,5.2424,5.2464,5.2486,5.2491,5.2501,5.2444,5.2543,5.2708,5.2727,5.251,5.2508,5.2506,0,5.1808,5.1925,5.2022,5.2054,5.2127,5.2172,5.2205,5.2259,5.2304,5.2367,5.2397,5.2468,5.2508,5.2564,5.2585,5.2546,5.2705,5.2654,5.2721,5.272,5.2755,5.2753,5.2931,5.2778,5.2778,5.2777,5.2777,0,5.1943,5.2027,5.2063,5.2123,5.2218,5.2236,5.2329,5.236,5.2409,5.2476,5.2473,5.2536,5.256,5.2627,5.2645,5.2742,5.2759,5.2775,5.2779,5.2776,5.2775,5.2804,5.2796,5.2782,5.2781,5.278,5.2779,0,5.2058,5.2085,5.2192,5.2253,5.227,5.2338,5.239,5.2449,5.2474,5.2559,5.258,5.262,5.2699,5.2726,5.2821,5.2833,5.2947,5.2943,5.2928,5.2929,5.2995,5.2989,5.3199,5.3228,5.3054,5.3056,5.3057,0,5.2143,5.2208,5.2276,5.2321,5.2356,5.2427,5.2474,5.2494,5.2542,5.2615,5.2665,5.2744,5.2808,5.2935,5.2973,5.3047,5.3046,5.3114,5.3057,5.3053,5.3049,5.3046,5.3054,5.3125,5.3127,5.3128,5.313,0,5.2291,5.2303,5.2369,5.2442,5.2498,5.2556,5.2612,5.2649,5.2677,5.2732,5.2814,5.2864,5.2962,5.3041,5.3117,5.3151,5.3147,5.3147,5.3167,5.3166,5.3156,5.3164,5.2959,5.3143,5.3141,5.314,5.314,5.3139,5.2396,5.2454,5.2512,5.2587,5.2632,5.2685,5.2744,5.2777,5.2845,5.2927,5.2935,5.3024,5.3082,5.3183,5.3222,5.3292,5.3273,5.33,5.3308,5.3315,5.3321,5.3143,5.3305,5.3305,5.3305,5.3304,5.3304,0,5.2546,5.2584,5.2653,5.2732,5.2792,5.2781,5.2844,5.2895,5.2973,5.3027,5.3091,5.3186,5.3263,5.3307,5.3385,5.3433,5.3433,5.3453,5.345,5.3459,5.3333,5.3309,5.3452,5.3452,5.3452,5.3452,5.3452,5.3452,5.2632,5.2731,5.2749,5.2871,5.2908,5.2995,5.3031,5.3081,5.3125,5.3231,5.3296,5.3324,5.3375,5.3457,5.3528,5.3539,5.3569,5.3591,5.3601,5.3483,5.3467,5.3453,5.3431,5.3597,5.3597,5.3722,5.3723,5.3724]}]]